Showing default

LUCH, 23426

Orbit data source: Space-Track

LUCH, 23426 is a payload satellite owned by VKS (CIS) in GEO that was launched on Fri, 16 Dec 1994 UTC via a PROTON-K/DM-2 launch vehicle from the Tyuratam Missile And Space Complex (TTMTR). Payload-class satellites include a variety of spacecraft equipped with specific instruments for various scientific and technological missions. These include communications satellites like Starlink; space stations such as the ISS; scientific satellites like the Hubble; Earth observation satellites from companies like Planet Labs, Umbra, and HawkEye 360; GPS; miniature CubeSats for education and research; and military/defense satellites.

Loading next visibility...
Identifier
23426, 1994-082A
Orbit
GEO
Country
Flag of CISCIS
Related business
Manufacturer
NPO PM
Mission
Defense Communications
Bus & Motor
KAUR-4 AL'TAIR, Unknown motor
Mass
2,400 kg wet, ~2,200 kg dry
Launch date (UTC)
1994-12-16 (32 years ago)
Launch vehicle
PROTON-K/DM-2
Launch site
Tyuratam Missile And Space Complex (TTMTR)
Object type
Payload
Rocket body
Debris
Shape & HBR
Cyl + 2 Pan + 2 Dish, 8.0 m
Radar Cross Section
40.926 m², Large (>1 m²)

Expand to show TLE details & history
Last TLE update: 3 days ago

TLE from 3 days ago
0 LUCH
1 23426U 94082A   26170.52492655 -.00000128  00000-0  00000+0 0  9995
2 23426  14.7448 354.5830 0004941 204.4401 155.5302  1.00158683115288
Epoch: 2026-06-19T12:35Z
TLE epoch observation values (Epoch: 2026-06-19T12:35:53.653Z)
Latitude
-0.00001°
Longitude
-102.14323°
Altitude
35,836.776 km
Speed
3.072 km/s
True Right ascension
23h 38m 19s
True Declination
0° 00' 00"
Sunlit
Object was in daylight at epoch
Visualization orbit readout
Latitude
Unknown
Longitude
Unknown
Altitude
Unknown
Speed
Unknown
Apparent Right ascension
Unknown
Apparent Declination
Unknown
Sunlit
N/A
Visualization observer readout
Local Sidereal Time
00:51:00
Azimuth
Unknown
Elevation
Unknown
Doppler factor
Unknown
Orbital elements
Apogee altitude
35,840.149 km
Perigee altitude
35,798.45 km
Semi-major axis
42,197.437 km
Eccentricity
0.00049
Inclination
14.7448°
RAAN
354.583°
Arg. of periapsis
204.4401°
True anomaly
155.55364°
Mean anomaly
155.5302°
Eccentric anomaly
155.54192°
Mean motion
0.25039 °/min
Orbital period
1,437.77 mins
BSTAR
0
Loading maneuver chart data...
Computing Atmospheric mass density...
Loading historical data...
Loading historical data...
Loading historical data...
Loading historical data...
Loading historical data...
Loading historical data...
Loading historical data...

Documentation

Showing up to 5 results
|